User: anonymous   Login
Location: Berg
(48.4333°N, 13.9167°E)
Time: 14:42:36
(UTC+00:00)
Language:

NOSS 3-2 (C) - Orbit

View from above orbital plane
View from above orbital plane
View from above satellite
View from above satellite

Ground track
Ground track

The orbit data is extracted from the following two-line orbital elements,

1 28097U 03054C   21195.77044801 0.00000000  00000-0  00000-0 0    00
2 28097  63.4154 115.7204 0438518 359.5173   0.4827 13.40777376    09
Epoch (UTC): 14 July 2021 18:29:26
Eccentricity: 0.0438518
inclination: 63.4154°
perigee height: 778 km
apogee height: 1434 km
right ascension of ascending node: 115.7204°
argument of perigee: 359.5173°
revolutions per day: 13.40777376
mean anomaly at epoch: 0.4827°
orbit number at epoch: 0

The dashed part of the orbit path shows where the satellite is in the earth's shadow,  

DLR